Regional Weather Roundup
Issued by NWS

Home | Current Version | Previous Version | Text Only | Print | Product List | Glossary Off
Versions: 1 2 3 4 5 6 7 8 9 10 11 12 13 14 15 16 17 18 19 20 21 22 23 24 25 26 27 28 29 30 31 32 33 34 35 36 37 38 39 40 41 42 43 44 45 46 47 48 49 50

994
ASUS45 KBOI 270210
RWRID

IDAHO REGIONAL WEATHER ROUNDUP
NATIONAL WEATHER SERVICE BOISE ID
800 PM MDT FRI AUG 26 2016

NOTE: "FAIR" INDICATES FEW OR NO CLOUDS BELOW 12000 FEET
WITH NO SIGNIFICANT WEATHER AND/OR OBSTRUCTIONS TO VISIBILITY

IDZ012-014-270300-
SOUTHWEST IDAHO


CITY           SKY/WX    TMP DP  RH WIND       PRES   REMARKS
BOISE          CLEAR     81  32  17 NW8       29.90F
CALDWELL       CLEAR     82  42  24 NW3       29.88F
MOUNTAIN HOME  CLEAR     82  34  17 NW14      29.91S
$$

IDZ016-017-270300-
SOUTHCENTRAL IDAHO


CITY           SKY/WX    TMP DP  RH WIND       PRES   REMARKS
BURLEY         CLEAR     68  40  35 W8        29.96F
JEROME         CLEAR     74  38  27 SW6       29.97F
TWIN FALLS     CLEAR     73  31  21 W5        29.98F
$$

IDZ019>023-270300-
SOUTHEAST IDAHO


CITY           SKY/WX    TMP DP  RH WIND       PRES   REMARKS
IDAHO FALLS    CLEAR     71  31  22 S13       29.99S
POCATELLO      CLEAR     70  31  23 SW10      30.00S
REXBURG        CLEAR     70  36  28 S9        29.98S
$$

IDZ006-010-011-018-031-032-270300-
CENTRAL IDAHO MOUNTAINS


CITY           SKY/WX    TMP DP  RH WIND       PRES   REMARKS
MCCALL         CLEAR     72  24  16 NW5       30.02F
HAILEY         PTCLDY    72  34  25 SW12      30.01
STANLEY          N/A     65  29  25 VRB5      30.10R
SALMON         CLEAR     72  43  35 CALM      29.90S
CHALLIS        CLEAR     71  30  21 CALM      29.95S
$$

IDZ002-004-006-007-026-270300-
NORTHERN IDAHO


CITY           SKY/WX    TMP DP  RH WIND       PRES   REMARKS
LEWISTON       PTCLDY    87  36  16 NW5       29.82F
LOWELL           N/A     70  47  43 CALM      29.85F
COEUR D`ALENE  MOCLDY    79  37  22 CALM      29.83F
MULLAN PASS    PTCLDY    60  31  33 VRB6      30.07F
$$




USA.gov is the U.S. government's official web portal to all federal, state and local government web resources and services.